Voltar ao catálogo

COSMOS 762

AtivoNavegaçãoLEO
NORAD 8286·PAYLOAD·🇷🇺 Russia

Lançado Sep 17, 1975 de Plesetsk Cosmodrome

Loading…

Próximas Passagens (próximas 24 horas)

TLE

AtualizadoSource: Space-Track

Época: Sep 14, 2026, 15:26 UTC

1 08286U 75086B   26257.64356355  .00000005  00000-0  13369-3 0  9999
2 08286  74.0091 134.4624 0029815 209.7080 178.0442 12.50907032328561

Acompanhe COSMOS 762 em tempo real com AllMySat

Download on the App Store